Location: ???????
(55.4362°N, 38.1183°E)
Time: 13:42:32
(UTC+00:00)

Cosmos 2219 Rocket - Pass Details

Date: 22 October 2021
Orbit: 826 x 848 km, 71.0° (Epoch: 01 December)

Event Time Altitude Azimuth Distance (km) Brightness Sun altitude
Exits shadow 22:27:37 16° 15° (NNE) 2,081 4.7 -43.5°
Drops below altitude 10° 22:30:03 10° 41° (NE) 2,466 5.2 -43.4°
Sets 22:33:29 0° 62° (ENE) 3,405 5.9 -43.1°
